Theta_e
354 355 353 356 355 353 356 356 342 336 339 348 348 357 357 357 358 358 357 351 347 346 345 344 345 347 349 351 351 352 354 354 354 354 354 357 358 360
354 356 356 354 358 356 354 352 351 346 340 347 350 354 357 357 357 358 358 351 347 345 343 342 343 345 346 347 347 347 349 349 349 349 349 350 351 354
352 355 355 357 359 360 355 353 351 351 344 346 351 356 359 359 359 359 359 358 355 344 343 342 341 342 343 345 345 345 346 346 346 346 346 346 348 349
346 348 348 354 354 355 353 353 350 355 349 346 350 352 356 359 360 359 356 354 357 349 342 341 339 339 339 339 339 340 340 341 342 341 343 344 346 347
346 345 346 348 348 353 353 352 351 355 351 346 347 350 353 355 355 358 358 359 355 349 340 339 338 337 336 335 334 333 333 334 334 335 336 338 341 344
345 346 345 345 345 349 348 346 349 351 348 347 347 347 348 354 354 350 360 355 353 354 350 347 346 341 337 334 333 332 329 327 327 327 329 330 334 337
349 347 345 345 345 345 350 346 349 351 345 347 346 354 349 354 349 357 356 363 360 354 352 354 356 356 354 338 345 338 331 328 325 324 324 324 326 329
344 348 350 347 347 341 340 341 348 351 350 346 345 341 342 346 355 356 357 351 346 355 362 350 353 353 356 358 346 339 331 329 326 324 323 322 322 323
344 345 344 343 346 349 344 337 338 338 341 353 349 347 343 346 345 348 352 352 349 351 353 348 352 351 354 354 336 333 330 327 325 324 323 321 320 320
344 345 345 346 348 346 348 349 352 354 353 349 343 349 348 350 350 349 351 348 351 352 352 342 348 346 352 351 333 332 329 327 325 323 322 320 317 316
344 346 346 345 338 333 345 345 345 347 342 334 335 336 335 335 340 348 341 339 343 345 352 345 346 344 344 345 346 327 323 321 320 320 321 319 314 312
340 342 333 336 328 327 343 344 341 341 345 346 346 342 337 344 333 345 347 342 341 340 348 343 340 341 340 346 346 344 339 319 317 317 317 315 311 338
331 334 336 324 317 316 319 344 340 342 340 340 339 339 340 342 345 346 349 346 344 342 344 341 339 340 341 343 345 346 345 341 341 332 313 311 310 322
330 332 334 314 313 314 319 326 323 324 336 336 336 336 336 337 339 342 346 348 349 350 352 347 341 341 337 338 339 345 344 347 345 345 344 320 310 312
330 326 317 314 312 318 315 317 318 334 337 336 335 336 337 338 341 341 344 346 346 347 347 351 345 347 343 340 340 342 338 340 341 342 344 340 340 336
326 328 324 319 317 321 326 329 331 336 337 337 337 338 338 336 334 336 335 336 335 336 343 347 348 348 343 343 342 342 342 337 335 336 339 338 339 339
311 324 326 327 328 331 332 334 335 334 332 335 335 333 332 333 334 335 333 332 331 333 334 340 347 347 346 344 339 342 342 340 335 333 333 333 335 336
317 323 323 324 325 327 328 329 331 331 332 333 332 332 331 331 332 333 334 331 333 332 333 334 343 339 337 336 336 336 340 338 337 335 336 329 328 328
319 323 322 321 321 321 323 327 327 330 334 332 332 332 332 332 331 331 330 330 330 333 334 335 340 333 329 325 335 326 338 340 338 333 335 331 328 327
317 315 316 318 318 319 320 320 322 323 325 328 331 332 332 332 330 328 329 328 329 332 332 334 334 337 330 330 332 338 312 341 336 332 328 316 316 317
315 316 317 317 318 319 320 321 322 322 322 325 330 331 332 331 328 327 328 318 321 331 331 331 334 330 344 340 327 322 326 312 325 334 321 316 314 313
310 313 315 316 318 320 322 323 323 323 324 324 326 329 330 330 328 328 328 327 327 329 333 334 336 343 340 332 330 331 325 326 317 317 321 319 319 314
303 306 307 307 310 313 317 316 319 323 323 323 326 328 327 325 328 329 328 328 328 330 335 334 335 339 336 334 330 329 324 321 317 321 322 315 316 316
Wind_Speed
10 11 10 8 8 9 8 8 6 7 8 6 5 4 4 5 7 9 11 11 16 17 17 16 16 17 19 17 16 14 14 15 15 15 15 16 16 17
6 8 9 9 8 8 8 9 9 10 12 6 6 6 5 6 6 9 10 7 12 15 16 16 17 18 18 17 16 16 17 16 17 17 15 14 15 15
4 7 8 9 6 7 8 8 9 9 12 8 8 7 9 8 7 8 8 9 9 16 15 15 16 16 17 18 16 17 17 15 15 14 16 16 16 15
5 5 5 6 8 6 8 9 7 10 10 13 9 8 9 8 8 8 7 7 8 10 13 14 16 17 16 15 16 13 12 13 14 14 15 17 17 17
4 4 7 4 6 5 7 8 8 7 7 9 9 5 8 7 7 8 7 7 7 7 9 11 12 14 15 14 13 13 13 13 15 15 15 15 16 16
6 6 6 8 9 7 6 7 7 9 9 8 9 7 7 7 6 7 6 7 8 7 8 8 9 12 13 13 12 13 14 14 14 15 15 15 15 16
7 8 8 10 15 12 7 7 7 8 7 8 6 7 8 7 9 5 5 5 6 7 6 8 9 9 10 12 11 16 15 15 15 15 14 14 15 15
8 7 6 7 9 8 12 14 12 8 9 7 7 7 7 6 7 7 5 5 4 4 5 9 9 9 9 9 13 10 15 14 14 15 15 14 13 13
10 10 9 7 7 7 8 9 10 12 12 9 10 8 6 6 4 8 8 7 7 4 4 7 5 9 9 8 10 12 12 13 13 13 13 13 14 14
11 10 10 10 10 8 7 7 8 7 9 8 8 10 7 6 8 5 6 5 7 7 5 8 6 7 4 6 4 7 9 10 11 12 12 12 13 13
10 10 10 10 9 6 7 8 8 8 6 8 9 8 7 6 6 5 5 5 8 9 7 8 6 7 5 7 6 5 4 6 7 9 10 11 10 7
9 7 7 9 9 6 9 8 9 8 7 6 5 7 8 8 10 10 7 7 5 2 5 5 4 4 6 6 8 6 5 6 5 6 7 8 11 7
10 8 7 6 8 7 9 10 9 4 4 5 5 6 6 6 6 6 8 7 6 7 5 4 2 3 7 5 4 7 7 6 7 6 6 7 11 8
10 9 9 5 10 11 5 8 2 4 4 5 6 7 6 5 4 4 6 8 9 10 3 10 5 6 4 4 9 5 6 7 7 7 7 6 5 4
10 10 13 13 9 8 11 9 5 7 7 7 8 7 6 5 5 5 7 8 9 10 10 12 10 9 9 10 11 7 5 5 7 7 7 7 7 6
8 10 12 13 12 9 7 7 6 7 8 9 9 7 6 6 7 6 6 7 7 8 10 12 12 11 10 11 11 10 8 6 5 5 6 6 6 6
11 11 10 9 9 9 8 7 7 6 8 9 9 9 9 8 8 6 6 6 8 10 9 6 11 13 12 11 9 11 10 9 6 7 6 6 6 6
8 10 10 9 9 9 9 9 9 8 9 10 10 10 10 10 10 8 7 8 10 10 9 9 9 5 4 6 9 7 9 9 7 10 7 5 4 3
9 10 7 6 7 6 7 9 9 9 10 9 9 9 10 10 9 10 9 8 9 11 11 9 9 7 9 9 4 17 11 10 8 8 8 6 5 7
6 5 8 7 7 7 8 8 6 6 7 8 10 10 10 10 9 9 10 10 10 12 11 10 9 10 10 9 7 7 17 10 9 9 6 3 4 13
8 8 7 8 7 8 8 9 10 8 8 8 9 10 11 9 8 9 9 10 11 12 13 12 12 14 11 6 3 2 4 11 9 13 7 7 4 3
10 10 10 9 9 8 9 12 12 14 12 9 11 11 11 9 8 9 9 10 9 11 14 11 10 8 9 8 9 7 5 5 4 7 16 11 8 8
11 11 8 10 10 9 9 8 10 11 9 8 9 10 9 8 9 9 9 11 9 11 13 12 8 7 8 8 10 6 8 7 4 5 5 4 9 5
Wind_Direction
233 230 225 229 224 227 223 231 212 246 256 241 252 209 240 237 233 231 232 224 211 214 217 218 225 230 234 233 234 228 225 226 225 220 221 226 227 223
242 237 232 234 222 228 229 228 228 250 262 259 243 257 257 260 233 234 242 240 207 213 218 219 224 230 231 231 227 226 225 226 224 218 215 217 216 219
279 268 265 252 228 225 227 232 234 235 251 255 261 261 259 249 242 234 238 237 235 205 215 219 221 224 225 229 230 226 222 217 218 218 212 214 215 213
297 315 281 283 254 229 233 225 222 237 248 259 255 246 245 256 267 256 245 235 243 187 207 212 215 216 218 219 223 224 223 215 213 217 217 214 216 214
251 275 273 284 261 245 244 239 232 247 242 260 265 245 260 255 254 249 241 243 238 206 207 213 212 210 211 211 216 214 219 216 213 216 216 213 214 213
291 276 283 281 275 250 225 246 244 247 227 235 252 253 254 253 249 258 246 235 238 237 222 251 205 217 220 215 216 215 220 221 214 219 218 214 214 213
255 223 230 240 245 249 260 240 232 240 239 249 249 247 244 245 241 240 236 246 245 239 247 237 217 218 215 217 234 222 219 217 216 211 216 216 216 215
295 289 268 256 263 244 235 233 238 238 240 228 235 235 241 251 267 249 245 248 261 199 231 241 238 225 225 214 201 210 206 217 213 211 211 212 216 226
282 280 278 266 257 267 261 237 230 227 239 254 247 235 234 228 223 253 240 239 249 218 223 244 201 243 234 228 177 195 202 199 203 209 207 211 217 214
273 267 263 266 263 262 270 263 263 245 223 223 226 254 250 260 245 254 266 252 262 248 232 255 224 243 219 234 202 223 201 207 207 210 215 215 218 222
290 281 276 273 267 240 263 263 267 262 242 233 243 255 254 248 234 225 219 215 256 247 201 249 240 251 225 217 193 183 200 204 207 214 214 215 213 191
302 294 254 265 294 239 253 261 266 263 260 250 233 232 229 227 208 221 225 225 232 271 193 192 173 207 232 213 213 191 186 166 177 187 194 184 172 202
297 295 301 3 321 281 244 253 252 278 231 258 268 266 258 247 239 214 225 221 230 237 184 206 200 178 256 248 221 212 209 171 199 168 159 176 190 251
297 298 303 11 316 302 253 258 224 228 245 252 256 260 259 248 241 245 246 246 248 258 207 200 225 201 199 237 248 177 209 209 222 210 201 135 187 245
304 315 299 286 276 264 244 247 239 237 251 247 249 255 246 256 284 262 254 255 259 256 250 230 236 236 234 241 247 218 176 204 205 211 210 202 200 197
309 309 302 282 263 281 291 226 230 240 248 256 264 270 261 253 264 266 267 268 260 257 240 245 241 234 244 240 243 241 218 195 168 196 218 225 218 213
315 285 287 289 287 283 271 260 259 236 241 247 252 253 256 259 259 239 243 251 251 265 261 227 233 241 240 239 239 232 226 213 183 173 179 206 207 209
271 278 282 287 288 290 291 289 280 258 262 258 254 257 259 255 250 244 245 249 254 252 246 254 244 216 217 243 228 239 220 208 183 185 183 180 174 175
265 280 284 294 295 291 293 295 292 292 298 273 265 261 258 256 244 249 246 248 256 260 258 257 247 209 221 233 224 216 233 217 184 187 189 186 194 180
280 269 287 292 287 286 284 277 269 269 270 270 274 264 258 258 256 245 245 244 248 260 260 246 235 234 230 234 228 223 205 217 191 190 167 91 70 88
289 291 288 289 287 284 280 278 269 264 259 262 258 263 265 262 243 241 241 236 245 260 263 252 245 231 248 239 201 216 228 232 238 194 153 149 151 153
328 319 304 301 290 285 285 293 294 283 263 249 254 257 260 259 248 250 243 245 238 245 256 256 255 246 236 221 234 219 193 190 357 189 164 151 162 176
321 317 317 305 300 294 289 314 295 278 261 266 271 276 265 258 257 255 250 251 243 252 265 256 241 238 244 229 232 219 179 172 163 161 150 56 108 109